Home > Weather > Wädenswil > Past weeks

Flag for Switzerland Weather for the Past 2 Weeks in Wädenswil, Zurich, Switzerland

Now
40 °F

Quite cool.


Feels Like: 38 °F
Forecast: 32 / 49 °F
Wind: 3 mph from Northeast

Location: Zuerich-Fluntern

Current Time: Feb 6, 2016 at 10:16:27 PM

Latest Report: Feb 6, 2016 at 9:00 PM


Visibility: N/A

Pressure: 29.89 "Hg

Humidity: 77%

Dew point: 34 °F

Location of WädenswilLocation

Historic Weather in Wädenswil — Graph

°F

Wädenswil Temperature Yesterday

Maximum temperature yesterday: 46 °F (at 3:00 PM)
Minimum temperature yesterday: 39 °F (at 8:00 PM)
Average temperature yesterday: 43 °F

High & Low Weather Summary for the Past Weeks

 TemperatureHumidityPressure
High56 °F (Feb 1, 1:00 PM)100% (Jan 24, 5:00 AM)30.69 "Hg (Jan 24, 5:00 AM)
Low28 °F (Jan 24, 6:00 AM)51% (Jan 25, 2:00 PM)29.89 "Hg (Feb 6, 9:00 PM)
Average43 °F79%30.35 "Hg
* Reported Jan 22 9:00 PM — Feb 6 9:00 PM, Wädenswil, Weather by CustomWeather, © 2016

Note: Actual official high and low records may vary slightly from our data, if they occured in-between our weather recording intervals... More about our weather records

Advertising

Wädenswil Weather History for the Previous 24 Hours

 ConditionsComfort  
Time TempWeatherWind HumidityBarometerVisibility
9:00 PM
Sat, Feb 6
40 °FQuite cool.3 mph77%29.89 "HgN/A
8:00 PM41 °FQuite cool.2 mph74%29.91 "HgN/A
7:00 PM42 °FQuite cool.3 mph79%29.94 "HgN/A
6:00 PM44 °FQuite cool.3 mph74%29.95 "HgN/A
5:00 PM49 °FCool.2 mph64%29.96 "HgN/A
4:00 PM51 °FCool.5 mph59%29.97 "HgN/A
3:00 PM52 °FCool.3 mph57%30.00 "HgN/A
2:00 PM50 °FCool.3 mph62%30.06 "HgN/A
1:00 PM49 °FCool.2 mph60%30.10 "HgN/A
12:00 PM47 °FCool.2 mph70%30.15 "HgN/A
11:00 AM41 °FQuite cool.1 mph86%30.20 "HgN/A
10:00 AM44 °FQuite cool.1 mph75%30.19 "HgN/A
9:00 AM37 °FChilly.No wind91%30.22 "HgN/A
8:00 AM36 °FChilly.1 mph93%30.22 "HgN/A
7:00 AM36 °FChilly.No wind94%30.22 "HgN/A
6:00 AM36 °FChilly.1 mph92%30.22 "HgN/A
5:00 AM37 °FChilly.1 mph90%30.24 "HgN/A
4:00 AM37 °FChilly.1 mph92%30.24 "HgN/A
3:00 AM35 °FChilly.No wind97%30.27 "HgN/A
Weather by CustomWeather, © 2016

See weather overviewHow to use our weather pages